#timestamp,LO_Frequency,Hit,StdDev 
1504080015.3,286047000.7,N,0.5
1504080035.1,286046998.5,N,1.0
1504080055.8,286047001.1,N,1.0
1504080075.7,286046998.6,N,1.1
1504080095.5,286046999.0,N,1.1
1504080115.3,286046999.2,N,1.1
1504080135.2,286046999.4,N,1.1
1504080155.0,286046998.7,N,1.1
1504080155.9,286046998.7,N,1.1
1504080175.7,286046999.1,N,1.1
1504080195.6,286046998.4,N,1.1
1504080215.4,286046998.1,N,1.1
1504080235.3,286047000.8,N,1.1
1504080255.1,286046999.2,N,1.1
1504080256.0,286046999.2,N,1.1
1504080275.8,286046997.1,N,1.2
1504080295.7,286046998.9,N,1.2
1504080315.5,286046998.8,N,1.2
1504080335.3,286046998.4,N,1.2
1504080355.2,286046998.7,N,1.1
1504080375.9,286046998.5,N,1.1
1504080395.7,286046999.2,N,1.1
1504080415.6,286046998.3,N,1.1
1504080435.4,286047001.1,N,1.1
1504080455.2,286046998.5,N,1.1
1504080475.1,286046999.6,N,1.1
1504080476.0,286046999.6,N,1.0
1504080495.8,286046998.8,N,1.0
1504080515.6,286046998.4,N,0.9
1504080535.5,286046996.5,Y,0.0
1504080555.3,286047000.4,P,0.6
1504080575.1,286047000.5,N,0.6
1504080595.9,286046999.7,N,0.6
1504080615.7,286046999.8,N,0.5
1504080635.5,286047000.4,N,0.5
1504080655.4,286047000.8,N,0.5
1504080675.2,286047000.6,N,0.5
1504080695.0,286047000.8,N,0.5
1504080695.9,286047000.8,N,0.5
1504080715.8,286047000.8,N,0.5
1504080735.6,286047001.2,N,0.6
1504080755.4,286046998.2,Y,0.0
1504080775.3,286046998.7,P,0.9
1504080795.1,286046998.2,N,0.9
1504080815.8,286046998.5,N,0.9
1504080835.7,286046998.3,N,0.8
1504080855.5,286046998.3,N,0.8
1504080875.3,286046998.6,N,0.7
1504080895.2,286046998.1,N,0.7
1504080915.0,286047000.3,N,0.8
1504080915.9,286047000.3,N,0.9
1504080935.7,286047000.8,N,1.0
1504080955.6,286047001.2,N,1.1
1504080975.4,286047000.5,N,1.1
1504080995.2,286047001.0,N,1.2
1504081015.1,286047002.8,N,1.4
1504081016.0,286047002.8,N,1.5
1504081035.8,286047002.8,N,1.6
1504081055.6,286047000.0,N,1.6
1504081075.5,286047000.4,N,1.6
1504081095.3,286047000.2,N,1.5
1504081115.1,286047000.5,N,1.5
1504081135.9,286047000.9,N,1.5
1504081155.7,286047000.3,N,1.4
1504081175.5,286046999.8,N,1.4
1504081195.4,286047002.3,N,1.4
1504081215.2,286046999.7,N,1.4
1504081235.1,286047000.1,N,1.4
1504081236.0,286047000.1,N,1.4
1504081255.8,286047002.4,N,1.4
1504081275.6,286046999.8,N,1.4
1504081295.5,286047001.8,N,1.4
1504081315.3,286047002.4,N,1.4
1504081335.1,286047002.3,N,1.4
1504081355.9,286047000.4,N,1.3
1504081375.7,286047000.5,N,1.3
1504081395.5,286047002.8,N,1.2
1504081415.4,286047002.8,N,1.2
1504081435.2,286046999.8,N,1.1
1504081455.0,286046998.2,N,1.2
1504081455.9,286046998.2,N,1.3
1504081475.8,286047000.6,N,1.3
1504081495.6,286047000.6,N,1.3
1504081515.4,286047000.7,N,1.3
1504081535.3,286047000.3,N,1.3
1504081555.1,286047000.4,N,1.3
1504081575.8,286046999.9,N,1.2
1504081595.7,286047000.0,N,1.2
1504081615.5,286047000.1,N,1.2
1504081635.3,286046999.9,N,1.2
1504081655.2,286047002.8,N,1.2
1504081675.0,286047002.5,N,1.3
1504081675.9,286047002.5,N,1.3
1504081695.7,286047002.4,N,1.3
1504081715.6,286046999.9,N,1.3
1504081735.4,286046999.7,N,1.3
1504081755.2,286046999.8,N,1.3
1504081775.1,286046999.8,N,1.3
1504081776.0,286046999.8,N,1.3
1504081795.8,286047000.0,N,1.3
1504081815.7,286047001.0,N,1.3
1504081835.5,286047001.1,N,1.3
1504081855.3,286046998.8,N,1.3
1504081875.2,286047000.6,N,1.2
1504081895.9,286046998.7,N,1.3
1504081915.7,286047000.8,N,1.3
1504081935.6,286047000.7,N,1.2
1504081955.4,286047001.0,N,1.1
1504081975.2,286047002.4,N,1.2
1504081995.1,286046999.8,N,1.1
1504081996.0,286046999.8,N,1.0
1504082015.8,286046999.7,N,1.1
1504082035.6,286047002.3,N,1.1
1504082055.5,286046999.8,N,1.1
1504082075.3,286047000.6,N,1.1
1504082095.1,286047000.0,N,1.1
1504082115.9,286046999.7,N,1.1
1504082135.7,286046999.7,N,1.1
1504082155.5,286046999.8,N,1.1
1504082175.4,286047000.5,N,1.1
1504082195.2,286047000.2,N,1.0
1504082215.0,286047002.4,N,1.0
1504082215.9,286047002.4,N,1.0
1504082235.8,286047002.8,N,1.1
1504082255.6,286047002.8,N,1.1
1504082275.4,286047002.2,N,1.2
1504082295.3,286047000.9,N,1.1
1504082315.1,286047000.5,N,1.1
1504082335.8,286047002.4,N,1.2
1504082355.7,286047000.5,N,1.2
1504082375.5,286047000.0,N,1.2
1504082395.4,286047002.7,N,1.2
1504082415.2,286047000.1,N,1.2
1504082435.0,286047002.3,N,1.2
1504082435.9,286047002.3,N,1.1
1504082455.8,286047001.4,N,1.1
1504082475.6,286047004.4,Y,0.0
1504082495.4,286047001.8,P,0.4
1504082515.3,286047003.7,P,1.1
1504082535.1,286047003.6,P,1.1
1504082536.0,286047003.6,Y,0.0
1504082555.8,286047000.2,P,1.2
1504082575.7,286046999.9,N,1.2
1504082595.5,286047001.1,N,1.0
1504082615.3,286047001.1,N,0.9
1504082635.2,286047000.9,N,0.8
1504082655.0,286046998.1,N,1.3
1504082655.9,286046998.1,N,1.4
1504082675.7,286046998.5,N,1.5
1504082695.6,286047000.7,N,1.4
1504082715.4,286046998.5,N,1.4
1504082735.2,286047000.6,N,1.4
1504082755.1,286046999.9,N,1.3
1504082756.0,286046999.9,N,1.3
1504082775.8,286047000.4,N,1.2
1504082795.6,286047000.6,N,1.2
1504082815.5,286047001.0,N,1.2
1504082835.3,286047000.8,N,1.2
1504082855.1,286047001.1,N,1.1
1504082875.9,286047000.7,N,1.1
1504082895.7,286047000.8,N,1.1
1504082915.5,286046998.8,N,1.1
1504082935.4,286046998.3,N,1.2
1504082955.2,286046998.5,N,1.2
1504082975.0,286046996.6,N,1.3
1504082975.9,286046996.6,N,1.5
1504082995.8,286046997.3,N,1.5
1504083015.6,286046997.4,N,1.5
1504083035.5,286046995.3,Y,0.0
1504083055.3,286046997.6,P,1.0
1504083075.1,286046998.0,N,0.9
1504083095.9,286046995.7,P,1.4
1504083115.7,286046995.1,Y,0.0
1504083135.5,286046999.6,P,0.9
1504083155.4,286046999.4,N,0.8
1504083175.2,286046996.6,P,1.2
1504083195.0,286046999.6,N,1.2
1504083195.9,286046999.6,N,1.2
1504083215.8,286046996.7,N,1.3
1504083235.6,286046997.2,N,1.3
1504083255.4,286046997.6,N,1.2
1504083275.3,286046995.3,Y,0.0
1504083295.1,286046997.2,P,0.5
1504083315.8,286046997.1,P,0.5
1504083335.7,286046997.2,P,0.5
1504083355.5,286046997.7,Y,0.0
1504083375.3,286046998.6,P,0.6
1504083395.2,286046998.1,P,0.5
1504083415.0,286046998.4,P,0.4
1504083415.9,286046998.4,Y,0.0
1504083435.8,286047000.3,P,1.1
1504083455.6,286046999.9,N,0.9
1504083475.4,286047002.3,N,1.5
1504083495.3,286047002.7,N,1.7
1504083515.1,286046999.8,N,1.6
1504083516.0,286046999.8,N,1.5
1504083535.8,286047001.0,N,1.4
1504083555.7,286047000.7,N,1.3
1504083575.5,286047000.8,N,1.2
1504083595.3,286047000.0,N,1.2
